Probability
52 42 48 77 74 32 0 0 6 6 0 0 0 0 3 6 6 10 6 6 13 16 13 19 26 23 29 26 29 29 29 26 35 35 32 35 39 35 35 39 39 39 39 39 39 45 45 48 52
39 29 29 61 35 3 0 6 6 6 0 3 3 6 3 6 10 10 16 6 6 10 10 10 23 32 29 26 19 19 19 23 23 23 23 23 26 26 29 32 35 35 42 39 29 32 35 39 42
32 19 32 52 13 3 3 10 6 6 0 0 0 3 6 6 10 13 16 10 6 10 10 16 26 23 26 23 23 16 13 13 13 16 19 19 23 23 26 26 32 39 32 29 32 32 26 32 39
19 39 26 13 0 3 10 3 6 6 0 0 0 0 10 6 13 16 13 6 10 10 13 19 26 16 16 10 6 0 6 10 6 10 16 16 16 13 19 16 26 26 32 26 26 29 26 35 39
19 26 16 6 0 0 6 6 3 3 0 0 0 3 6 6 16 16 16 6 3 10 13 10 19 16 16 10 3 3 0 3 3 3 10 13 13 16 16 16 16 23 23 23 29 32 32 35 35
39 23 3 0 0 3 3 6 3 3 0 0 0 3 3 10 6 10 10 6 3 10 6 6 23 23 13 3 3 3 3 3 3 3 3 10 13 13 16 16 13 16 19 23 16 29 29 29 26
23 13 3 0 3 3 3 6 3 3 0 0 0 3 3 10 16 6 6 6 6 3 6 10 6 3 6 3 3 3 3 0 0 0 3 0 10 10 13 13 13 13 13 19 16 19 16 26 26
19 13 0 0 3 3 3 3 3 3 0 0 0 0 3 6 13 10 6 6 3 3 3 3 3 0 0 0 3 3 0 0 0 0 3 0 6 3 6 3 10 13 13 13 13 19 19 29 32
6 6 0 3 0 0 3 3 3 0 0 0 0 3 0 0 6 6 6 6 3 3 3 3 3 0 0 0 0 0 0 0 0 0 0 3 0 0 0 0 3 3 3 3 10 19 23 26 29
10 13 0 3 3 3 6 3 3 0 0 0 0 0 0 3 6 6 6 6 3 3 3 3 3 0 0 0 0 0 0 0 0 0 0 0 0 0 0 0 0 3 3 3 13 16 13 16 3
3 3 3 3 0 3 3 3 3 0 0 0 0 0 0 0 6 6 10 6 6 3 3 3 0 0 0 0 0 0 0 0 0 0 0 0 0 0 0 0 0 0 0 0 3 3 6 3 6
3 3 0 0 0 0 3 3 0 0 0 0 0 0 0 0 3 6 6 6 6 6 3 3 3 0 0 0 0 0 0 0 0 0 0 0 0 0 0 0 0 0 0 0 0 0 0 0 3
3 3 0 0 0 0 0 0 0 0 0 3 0 0 0 0 0 3 3 6 6 6 6 3 3 0 0 0 0 0 0 0 0 0 0 0 0 0 0 0 0 0 0 0 0 0 0 0 0
0 0 0 0 0 0 0 0 0 0 3 0 3 0 0 0 0 0 3 6 6 6 6 3 3 3 0 0 0 0 0 0 0 0 0 0 0 0 0 0 0 0 0 0 0 0 0 3 0
0 0 0 0 0 0 0 0 0 3 3 0 3 3 3 0 0 0 0 6 6 6 6 6 0 3 3 0 0 0 0 0 0 0 0 0 0 0 0 0 0 0 0 0 0 0 0 0 0
0 0 0 0 0 0 0 0 0 6 6 6 3 3 3 3 0 0 3 3 6 6 6 6 3 0 0 0 3 0 0 0 0 0 0 0 0 0 0 0 0 0 0 0 0 0 0 0 0
0 0 0 0 0 0 0 0 0 6 6 3 3 3 3 3 3 6 3 6 10 6 6 6 3 0 0 0 0 3 3 3 0 0 0 0 0 0 0 0 0 0 0 0 0 0 0 0 0
0 0 0 0 0 0 0 0 0 6 6 6 3 3 3 3 6 10 10 13 10 10 6 6 6 3 0 0 0 0 0 0 0 0 0 0 0 0 0 0 0 0 0 0 0 0 0 0 0
0 0 0 0 0 0 0 0 0 6 6 6 6 3 3 3 6 10 10 10 10 10 6 6 3 3 0 0 0 0 0 0 0 0 0 0 0 0 0 0 0 0 0 0 0 0 0 0 0
0 0 0 0 0 0 0 0 0 3 3 0 3 3 3 3 6 10 10 10 6 10 6 6 6 3 0 0 0 0 0 0 0 0 0 0 0 0 0 0 0 0 0 0 0 0 0 0 0
0 0 0 0 0 0 0 0 0 0 0 0 0 3 3 6 6 10 10 10 13 10 6 3 6 6 0 0 0 0 0 0 0 3 3 0 0 0 0 0 0 0 0 0 0 0 0 0 0
0 0 0 0 0 0 0 0 0 0 0 0 0 0 6 6 3 10 10 10 13 10 10 3 10 10 3 0 0 0 0 0 3 3 3 3 0 0 0 0 0 0 0 0 0 0 0 0 0
0 0 0 0 0 0 0 0 0 0 0 0 0 0 0 6 10 10 10 10 13 10 6 10 10 6 6 0 0 0 0 0 0 0 0 3 3 0 0 0 0 0 0 0 0 0 0 0 0
0 0 0 0 0 0 0 0 0 0 0 0 0 0 0 3 10 10 10 13 10 10 6 10 10 6 6 0 0 0 0 0 0 0 0 0 0 0 0 0 0 0 0 0 0 0 0 0 0
0 0 0 0 0 0 0 0 0 0 0 0 0 0 0 3 3 10 10 13 16 6 6 10 6 6 6 3 0 0 0 0 0 0 0 0 0 0 0 0 0 0 0 0 0 0 0 0 0
0 0 0 0 0 0 0 0 0 0 0 0 0 0 3 3 3 6 13 13 19 13 10 6 6 6 6 3 0 0 0 0 0 0 0 0 0 0 0 0 0 0 0 0 0 0 0 0 0
0 0 0 0 0 0 0 0 0 0 0 0 0 0 0 0 3 6 13 13 16 16 13 10 6 6 3 0 0 0 0 0 0 0 0 0 0 0 0 0 0 0 0 0 0 0 0 0 0
0 0 0 0 0 0 0 0 0 0 0 0 0 0 0 0 6 3 10 13 16 16 10 6 6 6 3 0 0 0 0 0 0 0 0 0 0 0 0 0 0 0 0 0 0 0 0 0 0
0 0 0 0 0 0 0 0 0 0 0 0 0 0 0 0 6 3 3 13 13 13 16 16 6 6 3 3 3 0 0 0 0 0 0 0 0 0 0 0 0 0 0 0 0 0 0 0 0
0 0 0 0 0 0 0 0 0 0 0 0 0 0 0 0 6 6 3 6 19 16 13 13 6 6 3 3 3 0 0 0 0 0 0 0 0 0 0 0 0 0 0 0 0 0 0 0 0
Height
5870 5871 5872 5874 5875 5875 5875 5876 5877 5878 5879 5880 5880 5881 5882 5884 5886 5889 5887 5887 5888 5888 5887 5887 5888 5888 5889 5889 5890 5890 5890 5891 5891 5891 5891 5891 5891 5891 5891 5891 5891 5890 5890 5890 5890 5890 5889 5889 5888
5870 5871 5873 5874 5875 5875 5876 5876 5877 5878 5879 5880 5881 5882 5882 5884 5885 5886 5886 5887 5888 5888 5888 5888 5889 5889 5890 5890 5890 5891 5891 5891 5891 5891 5891 5891 5891 5891 5891 5891 5891 5891 5891 5891 5890 5890 5890 5889 5889
5870 5872 5874 5874 5874 5875 5876 5877 5878 5878 5879 5880 5881 5882 5883 5884 5885 5885 5886 5887 5888 5888 5889 5889 5889 5889 5890 5890 5891 5891 5891 5892 5892 5891 5892 5892 5891 5891 5892 5891 5891 5891 5891 5891 5890 5890 5890 5889 5889
5871 5872 5874 5874 5874 5874 5875 5877 5877 5878 5879 5880 5881 5882 5882 5883 5884 5885 5885 5886 5887 5888 5889 5889 5889 5889 5890 5891 5891 5891 5891 5892 5891 5892 5892 5892 5892 5892 5892 5892 5891 5891 5891 5891 5890 5890 5889 5889 5888
5870 5872 5873 5873 5874 5874 5875 5876 5877 5878 5879 5880 5881 5881 5881 5883 5883 5884 5885 5886 5887 5888 5888 5889 5889 5889 5890 5890 5891 5891 5892 5892 5891 5892 5892 5892 5892 5892 5891 5891 5891 5891 5891 5890 5890 5890 5889 5889 5888
5870 5871 5872 5872 5873 5874 5875 5875 5876 5878 5879 5879 5880 5881 5881 5882 5883 5883 5884 5885 5886 5887 5888 5888 5889 5889 5890 5890 5890 5891 5891 5891 5891 5891 5891 5892 5892 5892 5891 5891 5891 5891 5890 5890 5890 5889 5889 5888 5888
5870 5871 5871 5872 5872 5873 5874 5875 5876 5877 5878 5879 5880 5881 5881 5881 5882 5883 5883 5885 5885 5886 5887 5888 5888 5889 5889 5889 5890 5890 5890 5891 5891 5891 5891 5891 5891 5891 5891 5891 5891 5890 5890 5889 5889 5889 5888 5888 5887
5869 5871 5870 5871 5872 5873 5874 5874 5875 5876 5877 5878 5879 5880 5880 5881 5881 5882 5883 5884 5884 5885 5886 5887 5887 5888 5889 5889 5889 5890 5890 5890 5890 5891 5891 5891 5891 5891 5891 5891 5890 5890 5889 5889 5888 5888 5887 5887 5886
5868 5870 5870 5870 5872 5872 5873 5874 5875 5875 5877 5877 5878 5879 5879 5880 5880 5881 5882 5883 5883 5884 5885 5886 5886 5887 5888 5888 5889 5889 5889 5890 5890 5890 5890 5890 5890 5890 5890 5890 5890 5889 5889 5888 5888 5887 5887 5886 5885
5868 5869 5869 5870 5871 5872 5873 5873 5874 5875 5875 5876 5877 5877 5878 5879 5879 5880 5881 5882 5882 5883 5884 5885 5885 5886 5887 5887 5888 5888 5889 5889 5889 5889 5890 5890 5890 5890 5890 5889 5889 5889 5888 5888 5887 5887 5886 5885 5885
5867 5868 5868 5869 5870 5871 5872 5872 5873 5874 5875 5875 5876 5877 5877 5877 5878 5879 5880 5880 5881 5882 5883 5883 5884 5885 5885 5886 5886 5887 5887 5888 5888 5888 5889 5889 5889 5889 5889 5889 5889 5888 5888 5887 5887 5886 5886 5885 5884
5866 5867 5867 5868 5869 5870 5870 5871 5872 5873 5874 5874 5875 5875 5876 5877 5877 5877 5878 5879 5880 5880 5881 5882 5883 5883 5884 5885 5885 5886 5886 5886 5887 5887 5888 5888 5888 5888 5888 5888 5888 5887 5887 5886 5886 5886 5885 5884 5883
5865 5866 5867 5867 5868 5869 5869 5870 5871 5871 5872 5872 5873 5874 5874 5875 5875 5876 5877 5878 5879 5879 5879 5880 5881 5882 5883 5883 5884 5884 5885 5885 5886 5886 5886 5887 5887 5888 5888 5888 5887 5887 5886 5886 5885 5885 5884 5883 5882
5864 5865 5866 5866 5867 5868 5868 5869 5870 5870 5871 5871 5872 5873 5873 5874 5874 5875 5875 5876 5877 5878 5878 5879 5879 5880 5881 5882 5883 5883 5884 5884 5884 5885 5885 5886 5886 5886 5887 5887 5886 5886 5885 5885 5885 5884 5883 5882 5881
5863 5864 5865 5865 5866 5866 5867 5868 5868 5869 5869 5870 5870 5871 5872 5872 5873 5873 5874 5875 5875 5876 5876 5877 5877 5878 5879 5880 5881 5881 5882 5882 5883 5884 5884 5885 5885 5885 5885 5885 5885 5885 5884 5884 5883 5883 5882 5881 5880
5862 5863 5864 5864 5865 5865 5867 5867 5867 5867 5868 5868 5869 5870 5870 5871 5871 5872 5872 5873 5874 5874 5875 5875 5876 5877 5878 5879 5879 5880 5880 5881 5882 5882 5883 5883 5884 5884 5884 5884 5884 5883 5883 5883 5882 5882 5881 5880 5879
5860 5861 5862 5863 5863 5864 5865 5865 5865 5866 5866 5867 5867 5868 5869 5869 5870 5870 5871 5871 5872 5873 5873 5874 5874 5875 5876 5877 5877 5878 5879 5880 5880 5881 5881 5882 5882 5882 5882 5883 5883 5882 5882 5882 5881 5880 5879 5879 5878
5859 5860 5860 5861 5862 5862 5863 5864 5864 5864 5865 5865 5866 5866 5867 5867 5868 5868 5869 5869 5870 5871 5871 5872 5873 5874 5874 5875 5876 5876 5877 5878 5879 5879 5880 5880 5881 5881 5881 5881 5881 5881 5881 5880 5880 5879 5878 5877 5877
5857 5858 5859 5860 5860 5860 5861 5862 5862 5862 5863 5863 5864 5864 5865 5865 5866 5866 5867 5868 5868 5869 5870 5870 5871 5872 5873 5873 5874 5875 5876 5876 5877 5878 5878 5879 5879 5879 5879 5880 5880 5879 5879 5879 5878 5878 5877 5876 5875
5855 5856 5857 5858 5858 5859 5859 5860 5860 5860 5861 5861 5862 5862 5863 5863 5864 5864 5865 5866 5866 5867 5868 5868 5869 5870 5871 5871 5872 5873 5874 5874 5875 5876 5876 5877 5877 5877 5878 5878 5878 5878 5878 5877 5877 5876 5876 5875 5874
5853 5854 5855 5855 5856 5856 5857 5858 5858 5858 5858 5859 5860 5860 5861 5861 5862 5862 5863 5864 5865 5865 5866 5867 5867 5868 5869 5870 5871 5871 5872 5873 5874 5874 5875 5875 5876 5876 5876 5876 5876 5876 5876 5876 5875 5875 5874 5873 5873
5850 5852 5852 5853 5854 5854 5855 5855 5856 5856 5856 5857 5857 5858 5859 5859 5860 5860 5861 5862 5862 5863 5864 5865 5865 5866 5867 5868 5868 5869 5870 5871 5872 5872 5873 5873 5874 5874 5874 5874 5875 5875 5874 5874 5874 5873 5873 5872 5871
5848 5849 5850 5851 5851 5852 5852 5853 5854 5853 5854 5855 5855 5856 5856 5857 5857 5858 5859 5860 5860 5861 5862 5863 5864 5864 5865 5866 5866 5867 5868 5869 5870 5870 5871 5871 5872 5872 5873 5873 5873 5873 5873 5872 5872 5872 5871 5870 5869
5845 5846 5847 5847 5848 5849 5850 5851 5851 5850 5851 5852 5853 5853 5854 5854 5855 5856 5856 5857 5858 5859 5860 5861 5861 5862 5863 5863 5864 5865 5866 5867 5867 5868 5869 5869 5870 5871 5871 5871 5871 5871 5871 5871 5870 5870 5869 5868 5868
5842 5844 5844 5845 5845 5847 5848 5847 5849 5848 5849 5849 5850 5851 5851 5852 5852 5853 5854 5855 5855 5856 5857 5858 5859 5860 5860 5861 5862 5862 5863 5864 5865 5866 5867 5867 5868 5869 5869 5869 5869 5869 5869 5869 5868 5868 5867 5866 5866
5838 5840 5842 5843 5844 5845 5845 5845 5846 5846 5846 5847 5848 5848 5849 5849 5850 5851 5851 5852 5853 5854 5855 5855 5856 5857 5858 5858 5859 5860 5861 5862 5862 5863 5864 5865 5865 5866 5867 5867 5867 5867 5867 5866 5866 5866 5865 5864 5863
5834 5836 5839 5840 5841 5842 5842 5843 5843 5843 5844 5844 5845 5845 5846 5847 5847 5848 5849 5850 5850 5851 5852 5853 5854 5855 5855 5856 5856 5857 5858 5859 5860 5861 5861 5862 5863 5863 5864 5864 5864 5864 5864 5864 5864 5863 5862 5862 5861
5831 5833 5834 5836 5837 5838 5840 5840 5840 5841 5841 5842 5842 5842 5843 5844 5845 5845 5846 5847 5848 5848 5849 5850 5851 5852 5853 5854 5854 5855 5856 5857 5857 5858 5859 5860 5860 5861 5861 5862 5862 5862 5862 5862 5861 5861 5860 5859 5859
5827 5828 5829 5831 5833 5835 5836 5838 5838 5838 5839 5839 5839 5840 5841 5841 5842 5843 5843 5844 5845 5846 5847 5848 5849 5850 5850 5851 5852 5853 5854 5854 5855 5856 5857 5857 5858 5858 5859 5859 5859 5859 5859 5859 5858 5858 5857 5856 5856
5821 5823 5825 5827 5829 5830 5832 5836 5835 5835 5836 5836 5837 5837 5838 5838 5839 5840 5840 5841 5842 5843 5844 5845 5846 5847 5848 5849 5850 5850 5851 5852 5852 5853 5854 5854 5855 5855 5856 5856 5856 5856 5856 5856 5856 5855 5854 5853 5853
Wind_Speed
4 4 5 5 4 4 4 4 4 4 4 5 5 6 6 6 6 5 5 4 2 1 0 1 2 3 2 2 3 3 3 3 3 2 3 3 2 2 2 2 3 3 3 3 4 4 4 4 5
5 4 5 5 4 4 3 3 4 4 4 4 5 5 5 5 6 6 5 4 3 3 2 1 2 3 2 2 3 3 2 2 2 2 2 2 2 2 2 2 2 2 3 3 3 3 4 4 4
6 5 5 6 5 4 4 3 3 4 4 4 5 5 5 5 6 6 6 5 4 4 3 2 3 3 3 2 2 2 2 1 1 2 1 2 2 2 2 1 2 2 2 3 3 3 3 4 4
6 6 5 5 5 5 4 4 4 4 5 5 5 6 6 6 6 7 7 6 6 5 4 3 3 3 3 3 2 2 1 1 1 1 1 1 0 0 1 1 1 2 3 3 3 3 3 4 5
6 6 6 5 5 5 5 6 6 5 6 6 6 6 6 6 7 7 7 7 6 6 6 5 4 3 4 4 3 2 1 1 1 1 1 0 0 1 1 1 2 3 3 3 3 3 4 4 5
6 6 5 5 6 6 6 7 7 7 7 7 7 7 7 7 7 7 7 7 6 6 6 6 5 4 4 4 4 3 2 2 1 2 2 1 1 2 3 3 3 3 3 4 4 4 4 4 5
6 6 6 6 6 6 7 7 7 7 7 7 7 7 7 7 7 8 7 7 7 7 6 6 6 5 5 4 4 3 3 3 2 3 2 2 2 2 3 3 3 3 4 4 4 4 5 5 5
6 7 7 7 7 7 7 7 8 8 8 8 8 7 7 7 8 8 8 8 8 8 8 7 7 7 6 6 5 5 4 4 3 4 3 3 3 3 3 4 4 4 4 4 4 5 5 6 6
6 7 7 7 7 7 7 8 8 8 8 8 9 8 8 8 9 9 9 9 9 9 9 8 8 8 8 7 7 7 6 5 5 4 4 4 4 3 4 4 5 5 5 4 4 5 6 6 6
6 6 7 7 7 7 7 8 8 8 9 9 9 9 9 8 9 10 10 10 10 10 10 10 9 9 9 9 8 8 7 6 6 6 5 5 5 4 4 4 4 5 5 5 5 6 6 6 7
6 7 7 7 7 8 8 8 8 8 9 8 8 8 8 9 9 10 10 10 10 10 10 10 9 9 9 9 8 8 8 8 7 7 6 6 5 4 5 4 5 5 5 5 5 6 6 6 7
7 8 8 8 8 8 8 8 8 9 9 9 9 9 8 8 9 9 10 10 10 10 10 10 10 10 9 9 8 8 8 8 8 7 7 6 5 5 5 4 5 5 5 5 6 6 7 7 7
8 8 8 8 8 8 8 9 9 9 9 9 9 9 8 9 9 10 10 10 10 10 10 10 10 9 8 8 8 8 8 7 7 7 6 5 5 5 5 5 5 5 5 6 6 6 7 8 8
8 8 8 8 8 8 9 9 10 9 9 9 9 9 9 9 8 9 10 10 9 9 10 10 10 10 10 9 9 8 8 7 6 5 5 5 5 5 5 5 6 6 6 6 7 7 8 8 8
8 8 8 8 8 9 9 9 9 10 9 9 8 8 8 9 9 9 10 10 10 10 10 11 10 10 10 10 9 9 8 8 6 6 6 6 6 6 6 6 7 7 7 7 7 7 7 8 8
8 8 8 8 8 9 9 10 9 9 9 9 8 8 9 9 9 9 9 10 10 10 9 10 10 9 10 10 10 9 8 7 7 7 7 7 7 7 7 7 7 7 7 7 7 7 8 8 8
8 9 9 8 9 9 10 9 10 10 10 10 9 9 9 9 10 10 10 10 9 10 10 10 10 9 10 10 10 10 8 7 7 7 7 7 7 7 7 7 7 6 7 7 7 8 8 8 8
9 9 9 9 10 10 10 10 10 10 11 11 10 10 10 10 10 10 10 10 10 10 10 10 10 10 10 10 9 9 8 7 8 8 8 7 7 7 7 7 7 7 7 7 8 8 8 8 8
10 10 11 10 11 11 10 10 11 11 11 11 11 11 11 11 11 10 10 10 11 10 10 10 11 10 10 10 9 9 9 9 8 9 8 8 7 7 7 7 7 7 7 7 8 8 8 9 9
10 11 11 12 11 11 11 11 11 12 11 11 11 11 12 11 11 11 10 11 10 10 9 9 9 9 9 8 9 9 9 9 9 9 8 8 7 7 7 7 7 7 8 8 8 8 8 8 9
12 12 12 12 12 12 12 12 11 12 12 12 12 11 11 12 11 11 11 11 10 10 10 9 8 8 8 8 9 9 9 9 9 9 9 8 8 7 7 7 7 7 8 8 8 8 8 8 8
12 12 12 12 11 11 12 13 12 12 12 12 12 12 12 12 12 11 11 11 11 10 10 9 9 8 8 8 9 9 9 9 9 9 9 8 8 7 6 6 6 6 7 7 7 7 8 8 9
12 12 12 12 11 12 12 14 13 13 13 12 12 12 12 13 12 12 12 12 12 11 10 10 10 9 9 9 9 9 9 9 9 8 8 8 8 7 7 7 7 7 7 7 7 7 8 8 9
14 13 13 12 12 12 12 14 13 13 13 14 13 13 13 13 13 13 12 12 12 11 11 10 10 10 10 10 10 10 10 9 9 9 9 9 8 8 8 7 7 7 7 8 8 8 8 9 9
15 13 12 11 11 12 12 15 14 14 14 14 13 14 14 14 14 13 12 12 12 12 11 11 11 11 11 11 10 10 10 10 10 9 10 9 9 9 9 9 8 8 8 8 8 9 9 9 10
16 15 13 12 12 13 13 14 13 14 14 14 14 14 14 13 13 13 13 13 12 12 11 11 11 11 11 11 10 10 10 10 10 10 10 10 9 10 10 9 9 9 9 8 8 9 9 10 11
15 16 16 15 14 14 15 14 13 13 14 14 14 14 13 13 13 14 13 13 13 12 12 12 11 11 11 11 11 11 10 10 10 10 9 9 9 9 10 9 8 8 8 8 9 9 10 10 10
17 16 16 16 15 16 15 14 13 13 14 14 14 14 14 13 13 13 13 12 12 12 12 12 11 11 11 11 11 10 10 10 10 9 9 9 9 10 10 9 9 9 9 9 9 10 11 11 11
18 17 18 18 17 17 16 15 14 15 15 14 14 14 13 13 13 13 12 12 12 12 11 12 11 11 11 11 11 11 10 10 10 10 10 10 10 10 10 10 10 10 10 10 10 10 11 11 11
20 19 19 20 18 18 17 16 15 16 16 15 14 14 14 13 13 13 12 12 12 12 12 12 12 11 11 11 11 11 11 10 10 10 10 10 10 10 10 10 10 10 11 11 11 11 11 11 12
Wind_Direction
192 185 186 188 195 200 193 195 193 186 187 191 199 203 202 197 200 204 205 209 212 221 214 161 159 166 170 149 145 144 149 149 149 141 128 117 106 96 88 79 67 60 54 45 39 36 30 26 22
186 180 183 191 194 195 188 202 204 201 194 202 208 211 210 204 202 206 210 214 215 222 219 211 170 170 168 171 155 153 154 150 152 152 143 125 114 103 94 79 62 52 43 34 26 25 20 15 9
190 191 192 198 203 206 199 211 214 210 209 214 217 220 222 218 212 216 219 222 218 220 211 209 203 190 197 194 183 182 181 163 155 157 155 138 116 99 83 76 49 33 22 15 11 7 3 2 358
202 202 198 205 216 219 213 219 220 217 221 226 225 224 223 225 222 224 226 227 225 225 221 223 217 212 206 201 197 183 190 171 151 159 166 169 129 25 32 22 1 359 355 353 350 348 348 346 345
204 201 205 219 220 226 223 228 228 228 231 233 232 229 230 230 229 232 232 226 229 229 226 224 219 213 205 203 206 206 194 201 215 193 204 218 302 333 347 339 330 336 339 337 336 338 339 339 337
212 212 219 226 230 233 234 234 231 233 239 241 240 241 240 241 242 240 238 236 236 236 233 233 235 233 225 224 223 222 218 234 232 230 233 260 284 304 308 309 315 320 325 331 337 336 335 334 331
217 217 226 230 234 236 240 238 237 236 241 244 248 252 250 245 244 240 237 234 236 235 239 241 241 244 242 238 237 233 235 250 255 256 252 266 304 316 319 313 310 314 319 321 326 330 330 330 329
224 227 229 233 236 239 240 242 244 243 241 243 247 251 250 247 242 240 238 236 235 237 239 243 247 249 251 251 255 256 261 265 273 274 266 278 297 307 311 310 314 313 312 312 318 324 325 325 327
228 234 236 238 241 243 242 244 249 249 248 247 249 252 253 247 243 240 239 240 239 238 240 241 248 250 255 258 262 265 270 271 273 270 268 277 284 294 302 307 315 320 314 310 316 322 323 323 324
229 238 245 247 249 251 252 249 249 251 251 250 251 253 254 250 244 242 240 241 243 244 245 247 249 253 255 257 263 265 268 270 269 266 267 270 272 280 293 305 313 316 317 315 315 322 324 322 321
233 241 250 253 254 256 259 253 251 250 252 253 254 254 253 250 247 246 244 244 248 249 248 248 250 252 253 254 258 263 265 266 265 264 265 269 269 276 283 295 304 309 313 313 314 320 323 321 322
241 245 251 254 255 259 262 256 254 252 255 256 257 256 254 253 249 249 245 245 251 253 252 253 253 253 255 255 258 264 267 263 263 265 264 267 268 272 281 291 301 304 306 306 308 316 317 315 316
249 251 252 253 257 262 262 256 254 255 255 257 255 254 256 256 253 251 248 248 253 254 254 256 256 255 255 257 260 267 266 264 262 264 265 264 270 274 276 281 294 301 298 298 305 315 314 315 318
255 256 255 255 259 262 262 257 253 254 254 256 256 255 259 259 260 256 253 253 257 257 257 257 260 258 256 263 267 267 268 262 261 260 262 264 267 273 281 284 293 296 297 302 306 311 313 316 319
255 256 256 257 260 259 260 260 256 255 256 256 257 258 261 258 257 257 258 258 260 258 259 260 263 258 257 260 265 265 261 260 255 253 257 259 264 273 280 287 293 297 297 299 303 310 315 317 323
254 257 259 260 262 262 262 263 261 260 258 256 258 260 261 259 258 257 259 262 261 259 263 263 262 260 258 261 264 263 264 256 250 251 255 261 264 270 277 283 288 290 294 299 305 311 314 317 321
252 257 260 262 263 263 264 267 267 266 263 260 259 262 262 262 265 263 262 262 263 261 264 260 257 257 257 259 259 261 258 254 249 253 259 261 266 272 277 281 284 288 296 302 307 310 313 314 318
255 256 259 261 264 263 264 267 268 266 264 264 263 263 261 262 266 265 263 262 262 266 262 257 254 256 258 260 259 259 251 250 250 254 263 265 268 274 275 277 281 285 295 302 307 309 314 316 318
256 260 264 263 264 262 263 267 266 267 265 265 264 263 262 262 263 263 261 260 260 265 265 258 257 256 256 258 259 258 255 253 254 256 262 265 270 276 274 273 281 288 295 302 306 310 312 315 318
256 259 261 263 263 265 265 267 268 269 269 267 266 265 264 264 263 260 259 259 257 260 264 258 257 254 253 255 255 256 258 254 256 259 262 265 272 278 278 279 285 290 296 302 306 308 313 315 318
255 260 262 262 260 264 266 266 268 270 270 269 268 268 270 266 263 261 259 258 256 258 261 255 251 252 254 254 254 256 256 258 259 261 263 268 272 277 279 286 290 295 298 301 304 307 310 315 319
254 256 258 261 261 266 267 269 267 268 269 269 269 267 269 264 264 261 258 258 260 259 257 256 254 253 256 260 259 258 257 257 260 262 265 270 272 275 282 286 290 296 297 299 304 310 311 314 318
252 252 256 260 263 264 267 270 269 268 270 269 269 269 268 264 261 261 259 258 259 258 256 258 257 257 259 262 261 260 258 257 257 260 266 267 272 277 281 285 288 292 296 299 301 307 310 312 315
247 249 251 254 259 264 266 270 272 270 271 269 269 270 266 263 261 260 260 260 259 256 256 259 261 259 260 261 259 260 257 259 261 262 271 270 270 275 283 284 288 291 290 294 296 301 302 308 310
244 246 248 252 259 268 267 268 272 271 270 272 272 270 267 263 262 260 260 262 259 255 258 259 260 257 259 261 259 257 259 261 261 265 270 271 271 273 280 283 285 288 289 292 298 298 299 303 306
245 243 241 246 253 265 269 266 271 270 271 272 272 268 266 264 259 258 259 259 257 255 256 260 259 258 259 261 258 256 260 262 264 268 268 267 268 270 273 281 283 287 288 290 296 297 297 298 303
245 242 240 242 250 259 264 267 270 272 273 272 270 267 266 264 261 259 259 258 256 254 254 257 258 258 258 261 259 255 258 262 263 264 262 262 263 267 271 274 280 286 288 292 294 298 296 297 301
246 243 236 238 245 255 263 264 267 273 270 271 271 271 268 263 261 260 260 259 257 255 255 255 258 257 257 262 260 256 257 260 260 260 261 261 261 264 267 267 274 281 285 288 293 296 299 298 299
246 243 237 239 245 249 258 254 256 265 272 272 271 269 266 263 261 261 261 258 257 257 255 256 256 254 257 260 259 256 257 257 258 261 261 263 263 266 267 268 275 280 285 290 291 294 297 298 301
246 244 238 236 240 246 253 255 257 263 267 269 266 266 266 263 260 259 260 259 257 257 256 258 256 255 259 258 257 258 257 258 259 261 260 262 264 266 268 267 273 278 284 288 290 294 296 299 303